Retour au catalogue

CZ-6A DEB

ActifPO
NORAD 55205·DEBRIS·🇨🇳 China

Lancé Nov 11, 2022 depuis Taiyuan Satellite Launch Center

Loading…

Prochains Passages (prochaines 24 heures)

TLE

FraisSource: Space-Track

Époque: Sep 13, 2026, 22:08 UTC

1 55205U 22151VW  26256.92256462  .00006014  00000-0  10020-2 0  9991
2 55205  98.6116 324.0616 0068066   6.6942 353.5155 14.68880337198042

Suivez CZ-6A DEB en temps réel avec AllMySat

Download on the App Store